カタログに戻る

THOR ABLESTAR DEB

運用中LEO
NORAD 13514·DEBRIS·🇺🇸 United States

打ち上げ Jun 29, 1961 から Cape Canaveral Space Force Station

Loading…

次のパス (今後24時間)

TLE

最新Source: Space-Track

元期: Sep 14, 2026, 04:39 UTC

1 13514U 61015KX  26257.19434208  .00000193  00000-0  33600-3 0  9998
2 13514  66.7151 181.4481 0244739 330.9488  96.9066 13.51370830276599

AllMySatでTHOR ABLESTAR DEBをリアルタイム追跡

Download on the App Store